Regional Weather Roundup
Issued by NWS Newport/Morehead, NC

Current Version | Previous Version | Graphics & Text | Print | Product List | Glossary On
Versions: 1 2 3 4 5 6 7 8 9 10 11 12 13 14 15 16 17 18 19 20 21 22 23 24 25 26 27 28 29 30 31 32 33 34 35 36 37 38 39 40 41 42 43 44 45 46 47 48 49 50
000 ASUS42 KMHX 210525 RWRMHX WEATHER ROUNDUP FOR EASTERN NORTH CAROLINA NATIONAL WEATHER SERVICE NEWPORT/MOREHEAD CITY NC 100 AM EDT THU SEP 21 2017 NOTE: "FAIR" INDICATES FEW OR NO CLOUDS BELOW 12,000 FEET WITH NO SIGNIFICANT WEATHER AND/OR OBSTRUCTIONS TO VISIBILITY NCZ015>017-031-032-045>047-102-103-210600- NORTH COAST CITY SKY/WX TMP DP RH WIND PRES REMARKS EDENTON CLEAR 70 67 92 CALM 29.99S ELIZABETH CITY PTCLDY 70 69 97 CALM 29.98F KITTY HAWK CLEAR 71 64 76 CALM 29.97F MANTEO CLEAR 67 66 94 CALM 29.99S $$ NCZ045>047-081-094-103-104-210600- CENTRAL COAST CITY SKY/WX TMP DP RH WIND PRES REMARKS FRISCO CLEAR 76 74 93 W3 29.98F $$ NCZ095-097-098-100-101-210600- SOUTHERN COAST CITY SKY/WX TMP DP RH WIND PRES REMARKS BEAUFORT CLEAR 77 76 96 W6 29.99R CEDAR ISLAND NOT AVBL JACKSONVILLE CLOUDY 74 73 97 CALM 29.99S PINEY ISLAND N/A N/A N/A N/A SW6 29.98S WILMINGTON CLEAR 75 71 87 SW5 30.00S $$ NCZ011>013-027>030-043-044-078>080-089-090>093-098-210600- COASTAL PLAIN CITY SKY/WX TMP DP RH WIND PRES REMARKS AHOSKIE N/A 67 67 100 CALM 30.00S CLINTON CLEAR 69 67 92 CALM 30.01F ELIZABETHTOWN NOT AVBL GOLDSBORO CLEAR 70 70 100 CALM 29.98S GREENVILLE PTCLDY 70 70 100 CALM 30.01S FOG HAVELOCK CLEAR 73 72 96 CALM 30.00R KENANSVILLE CLEAR 68 66 94 CALM 30.00S KINSTON PTCLDY 68 66 95 S3 30.00S NEW BERN CLOUDY 72 72 100 CALM 30.00S FOG RICHLANDS CLOUDY 70 69 97 CALM 30.00S ROCKY MOUNT PTCLDY 70 69 97 CALM 30.00S WASHINGTON CLOUDY 71 70 96 CALM 29.99S WHITEVILLE PTCLDY 74 71 89 CALM 30.01S $$ AMZ130-135-150-152-154-156-158-170-250-252-270-ANZ085-086-088-633-658-670-210600- MARINE OBSERVATIONS STATION/POSITION TIME TEMP WIND PRES WAVE SWELL AIR SEA DIR/SP/G HT/PER HT/PER (UTC) (F) (DEG/KT/KT) (MB) (FT/S) (FT/S) CHESAPEAKE LIGHT NOT AVBL 64 E VA BEACH 0450 71 70 270/ 4/ 4 1015.2 6/10 7/10 DUCK 0500 76 75 180/ 5/ 5 1014.7 2 E DUCK 0500 74 N/A 4/11 2/11 OREGON INLET 0500 74 77 90/ 2/ 2 1015.1 13E OREGON INLT 0448 74 N/A 6/10 5/10 HATTERAS CG 0500 77 78 260/ 5/ 6 1015.2 DIAMOND BUOY 0450 76 75 270/ 2/ 2 1015.3 4/11 3/11 CAPE LOOKOUT 0500 78 250/ 6/ 8 1015.2 BEAUFORT LAB 0500 78 75 280/ 2/ 2 1014.9 30 SE NEW RVR IN 0508 79 260/ 12/ 17 1015.4 30 SE NEW RVR IN NOT AVBL 27 SE WRIGHTSVLE 0508 79 80 240/ 12/ 16 1015.6 5 SE WRIGHTSVLE 0508 78 79 270/ 12/ 19 1015.5 225 S CAPE HAT 0450 79 80 160/ 4/ 6 1016.4 8/11 8/11 41 SE CHARLESTON 0510 81 81 200/ 8/ 10 1016.1 $$

USA.gov is the U.S. government's official web portal to all federal, state and local government web resources and services.